Time,TemperatureF,DewpointF,PressureIn,WindDirection,WindDirectionDegrees,WindSpeedMPH,WindSpeedGustMPH,Humidity,HourlyPrecipIn,Conditions,Clouds,dailyrainin,SolarRadiationWatts/m^2,SoftwareType,DateUTC
2013-08-28 13:43:00,67.0,44.0,-100.00,SSW,195,4.0,8.0,43,0.00,,,0.00,494.000000,,2013-08-28 17:43:00,
2013-08-28 13:52:00,67.0,44.0,-100.00,SSW,195,4.0,8.0,43,0.00,,,0.00,494.000000,,2013-08-28 17:52:00,
2013-08-28 14:22:00,71.0,44.0,-100.00,SSW,204,6.0,11.0,38,0.00,,,0.00,659.000000,,2013-08-28 18:22:00,
2013-08-28 14:31:00,71.0,44.0,-100.00,SSW,204,6.0,11.0,38,0.00,,,0.00,659.000000,,2013-08-28 18:31:00,
2013-08-28 14:42:00,71.0,44.0,-100.00,SSW,204,6.0,11.0,38,0.00,,,0.00,659.000000,,2013-08-28 18:42:00,
2013-08-28 14:52:00,71.0,44.0,-100.00,SSW,204,6.0,11.0,38,0.00,,,0.00,659.000000,,2013-08-28 18:52:00,
2013-08-28 15:21:00,76.0,34.0,-100.00,SSW,193,8.0,13.0,22,0.00,,,0.00,786.000000,,2013-08-28 19:21:00,
2013-08-28 15:32:00,76.0,34.0,-100.00,SSW,193,8.0,13.0,22,0.00,,,0.00,786.000000,,2013-08-28 19:32:00,
2013-08-28 15:42:00,76.0,34.0,-100.00,SSW,193,8.0,13.0,22,0.00,,,0.00,786.000000,,2013-08-28 19:42:00,
2013-08-28 15:52:00,76.0,34.0,-100.00,SSW,193,8.0,13.0,22,0.00,,,0.00,786.000000,,2013-08-28 19:52:00,
2013-08-28 16:23:00,79.0,37.0,-100.00,SSW,204,8.0,17.0,22,0.00,,,0.00,862.000000,,2013-08-28 20:23:00,
2013-08-28 16:32:00,79.0,37.0,-100.00,SSW,204,8.0,17.0,22,0.00,,,0.00,862.000000,,2013-08-28 20:32:00,
2013-08-28 16:43:00,79.0,37.0,-100.00,SSW,204,8.0,17.0,22,0.00,,,0.00,862.000000,,2013-08-28 20:43:00,
2013-08-28 16:52:00,79.0,37.0,-100.00,SSW,204,8.0,17.0,22,0.00,,,0.00,862.000000,,2013-08-28 20:52:00,
2013-08-28 16:56:00,80.0,37.0,-100.00,SSW,200,9.0,17.0,21,0.00,,,0.00,881.000000,,2013-08-28 20:56:00,
2013-08-28 17:22:00,80.0,37.0,-100.00,SSW,200,9.0,17.0,21,0.00,,,0.00,881.000000,,2013-08-28 21:22:00,
2013-08-28 17:35:00,80.0,37.0,-100.00,SSW,200,9.0,17.0,21,0.00,,,0.00,881.000000,,2013-08-28 21:35:00,
2013-08-28 17:44:00,80.0,37.0,-100.00,SSW,200,9.0,17.0,21,0.00,,,0.00,881.000000,,2013-08-28 21:44:00,
2013-08-28 18:25:00,82.0,37.0,-100.00,SW,214,7.0,17.0,20,0.00,,,0.00,844.000000,,2013-08-28 22:25:00,
2013-08-28 18:34:00,82.0,37.0,-100.00,SW,214,7.0,17.0,20,0.00,,,0.00,844.000000,,2013-08-28 22:34:00,
2013-08-28 18:43:00,82.0,37.0,-100.00,SW,214,7.0,17.0,20,0.00,,,0.00,844.000000,,2013-08-28 22:43:00,
2013-08-28 18:54:00,82.0,37.0,-100.00,SW,214,7.0,17.0,20,0.00,,,0.00,844.000000,,2013-08-28 22:54:00,
2013-08-28 19:22:00,81.0,36.0,-100.00,SSW,212,9.0,16.0,20,0.00,,,0.00,751.000000,,2013-08-28 23:22:00,
2013-08-28 19:33:00,81.0,36.0,-100.00,SSW,212,9.0,16.0,20,0.00,,,0.00,751.000000,,2013-08-28 23:33:00,
2013-08-28 19:42:00,81.0,36.0,-100.00,SSW,212,9.0,16.0,20,0.00,,,0.00,751.000000,,2013-08-28 23:42:00,
2013-08-28 19:53:00,81.0,36.0,-100.00,SSW,212,9.0,16.0,20,0.00,,,0.00,751.000000,,2013-08-28 23:53:00,
2013-08-28 21:22:00,78.0,37.0,-100.00,SSW,208,7.0,15.0,23,0.00,,,0.00,383.000000,,2013-08-29 01:22:00,
2013-08-28 21:32:00,78.0,37.0,-100.00,SSW,208,7.0,15.0,23,0.00,,,0.00,383.000000,,2013-08-29 01:32:00,
2013-08-28 21:42:00,78.0,37.0,-100.00,SSW,208,7.0,15.0,23,0.00,,,0.00,383.000000,,2013-08-29 01:42:00,
2013-08-28 21:52:00,78.0,37.0,-100.00,SSW,208,7.0,15.0,23,0.00,,,0.00,383.000000,,2013-08-29 01:52:00,
2013-08-28 22:22:00,74.0,41.0,-100.00,SW,223,10.0,19.0,30,0.00,,,0.00,85.000000,,2013-08-29 02:22:00,
2013-08-28 22:32:00,74.0,41.0,-100.00,SW,223,10.0,19.0,30,0.00,,,0.00,85.000000,,2013-08-29 02:32:00,
2013-08-28 22:43:00,74.0,41.0,-100.00,SW,223,10.0,19.0,30,0.00,,,0.00,85.000000,,2013-08-29 02:43:00,
2013-08-28 22:52:00,74.0,41.0,-100.00,SW,223,10.0,19.0,30,0.00,,,0.00,85.000000,,2013-08-29 02:52:00,
2013-08-28 22:56:00,69.0,46.0,-100.00,WNW,285,6.0,18.0,44,0.00,,,0.00,22.000000,,2013-08-29 02:56:00,
2013-08-28 23:22:00,69.0,46.0,-100.00,WNW,285,6.0,18.0,44,0.00,,,0.00,22.000000,,2013-08-29 03:22:00,
2013-08-28 23:37:00,69.0,46.0,-100.00,WNW,285,6.0,18.0,44,0.00,,,0.00,22.000000,,2013-08-29 03:37:00,
2013-08-28 23:45:00,69.0,46.0,-100.00,WNW,285,6.0,18.0,44,0.00,,,0.00,22.000000,,2013-08-29 03:45:00,